Regional Weather Roundup
Issued by NWS Goodland, KS

Home | Current Version | Previous Version | Graphics & Text | Print | Product List | Glossary On
Versions: 1 2 3 4 5 6 7 8 9 10 11 12 13 14 15 16 17 18 19 20 21 22 23 24 25 26 27 28 29 30 31 32 33 34 35 36 37 38 39 40 41 42 43 44 45 46 47 48 49 50
000
ASUS43 KGLD 060759
RWRGLD

GOODLAND FORECAST AREA HOURLY WEATHER ROUNDUP
NATIONAL WEATHER SERVICE GOODLAND KS
200 AM MDT WED MAY 06 2015

...OFFICIAL OBSERVATIONS...

CITY           SKY/WX    TMP DP  RH WIND       PRES   REMARKS
GOODLAND KS    CLOUDY    52  51  97 SE9       29.74F
HILL CITY KS   CLOUDY    61  59  93 SE12      29.77F
IMPERIAL NEB   CLOUDY    54  52  93 SE14      29.73F
MCCOOK NEB     CLOUDY    60  57  89 SE16G24   29.73F
AKRON CO       CLOUDY    51  51 100 SE17      29.67F FOG
BURLINGTON CO  PTCLDY    51  49  92 S12       29.74F
LIMON CO       CLOUDY    49  46  90 S7        29.75S
$$

...UNOFFICIAL OBSERVATIONS...

CITY           SKY/WX    TMP DP  RH WIND       PRES   REMARKS
GOVE KS          N/A     58  32  37 MISG        N/A
LENORA KS        N/A     59  32  36 MISG        N/A
SHARON SPRINGS   N/A     51  50  96 MISG        N/A
KIT CARSON CO    N/A     51  49  92 MISG        N/A
YUMA CO          N/A     54  54 100 SE12G18     N/A
$$


USA.gov is the U.S. government's official web portal to all federal, state and local government web resources and services.